sat.trackr.live / text

‹ back to catalog

LIJIAN-1 R/B

NORAD 69102 · 2026-106F

ROCKET_BODY UNKNOWN UNKNOWN

§ Identity

Operator
Country
PRC
Launch date
2026-05-15
Launch site
JSC
Launch vehicle
Mass (kg)
RCS (m²)

External: N2YO · Heavens-Above · Gunter

§ Orbital elements

Epoch: 2026-05-15T21:04:15.121056Z

Period
92.87 min
Inclination
97.5061°
Eccentricity
0.0181467
Mean motion
15.50517461 rev/d
Perigee alt
291.9 km
Apogee alt
538.5 km
Semi-major
6,793.4 km
B*
1.3375e-4
RAAN
218.5961°
Arg perigee
13.3087°
Mean anomaly
347.2857°
Rev number
11

§ Raw data

LIJIAN-1 R/B1 69102U 26106F   26135.87795279  .00014693  21527-5  13375-3 0  99912 69102  97.5061 218.5961 0181467  13.3087 347.2857 15.50517461   112

JSON: /api/v1/satellites/69102 · /tle

For live sub-satellite position, see the globe view (requires WebGL).

§ Visibility from observer

Set your observer location to see the next 7 days of passes ≥ 10°. The values pass through the URL so the page stays shareable.

No JS? Fill the form by hand. The geolocation button needs JavaScript.